Regional Weather Roundup
Issued by NWS Little Rock, AR

Home | Current Version | Previous Version | Text Only | Print | Product List | Glossary Off
Versions: 1 2 3 4 5 6 7 8 9 10 11 12 13 14 15 16 17 18 19 20 21 22 23 24 25 26 27 28 29 30 31 32 33 34 35 36 37 38 39 40 41 42 43 44 45 46 47 48 49

000
ASUS44 KLZK 310705
RWRLZK

WEATHER ROUNDUP FOR ARKANSAS
NATIONAL WEATHER SERVICE LITTLE ROCK AR
200 AM CDT FRI JUL 31 2015

NOTE: "FAIR" INDICATES FEW OR NO CLOUDS BELOW 12,000 FEET WITH NO
SIGNIFICANT WEATHER AND/OR OBSTRUCTIONS TO VISIBILITY.

ARZ001-003-010-029-310800-
NORTHWEST ARKANSAS

CITY           SKY/WX    TMP DP  RH WIND       PRES   REMARKS
FAYETTEVILLE   CLEAR     66  66 100 CALM      30.16F
FORT SMITH     PTCLDY    77  67  71 E3        30.11S
HARRISON       MOCLDY    67  64  90 CALM      30.18S
BENTONVILLE    CLEAR     72  61  68 CALM      30.17S
ROGERS         CLEAR     72  66  81 E6        30.17F
SILOAM SPGS    PTCLDY    72  63  73 E3        30.14F
HIGHFILL       CLEAR     72  67  84 CALM      30.16S
$$

ARZ004-005-016-310800-
NORTH CENTRAL ARKANSAS

CITY           SKY/WX    TMP DP  RH WIND       PRES   REMARKS
BATESVILLE     CLEAR     70  66  88 NW6       30.12S
FLIPPIN        PTCLDY    68  64  88 CALM      30.13F
MTN HOME       PTCLDY    67  65  93 CALM      30.15F
$$

ARZ040-041-310800-
WEST CENTRAL ARKANSAS

CITY           SKY/WX    TMP DP  RH WIND       PRES   REMARKS
MENA           CLEAR     72  70  94 CALM      30.14S
MOUNT IDA      FOG       71  69  93 CALM      30.10S VSB 3/4
$$

ARZ009-017-025-026-028-310800-
NORTHEAST ARKANSAS

CITY           SKY/WX    TMP DP  RH WIND       PRES   REMARKS
JONESBORO      PTCLDY    73  62  68 N6        30.09S
NEWPORT        CLEAR     69  67  93 N7        30.11S
WALNUT RIDGE   PTCLDY    70  64  83 NW6       30.11F
BLYTHEVILLE    PTCLDY    68  67  96 N5        30.08F
$$

ARZ022-023-033-042-044-310800-
CENTRAL ARKANSAS

CITY           SKY/WX    TMP DP  RH WIND       PRES   REMARKS
LITTLE ROCK    PTCLDY    74  63  68 N6        30.09F
N LITTLE ROCK    N/A     74  64  71 N7        30.09F
JACKSONVILLE   CLEAR     69  64  84 W5        30.09F
SEARCY         CLEAR     72  64  76 N3        30.11S
HOT SPRINGS    CLEAR     72  63  73 CALM      30.10S
RUSSELLVILLE   CLEAR     70  65  84 CALM      30.10F
CLINTON        LGT RAIN  66  66 100 CALM      30.14F
$$

ARZ036-310800-
EAST ARKANSAS

CITY           SKY/WX    TMP DP  RH WIND       PRES   REMARKS
WEST MEMPHIS   PTCLDY    70  67  90 N5        30.06S
$$

ARZ050-053-066-070-073-310800-
SOUTHWEST ARKANSAS

CITY           SKY/WX    TMP DP  RH WIND       PRES   REMARKS
ARKADELPHIA    FAIR      76  66  71 NE7       30.08S
CAMDEN         CLEAR     66  64  94 CALM      30.06R
TEXARKANA      CLEAR     75  69  81 NE3       30.09R
EL DORADO      CLEAR     71  64  78 N3        30.06S
DE QUEEN       CLEAR     73  72  96 CALM      30.08S
$$

ARZ056-057-069-310800-
SOUTHEAST ARKANSAS

CITY           SKY/WX    TMP DP  RH WIND       PRES   REMARKS
PINE BLUFF     CLEAR     74  66  76 N8        30.07F
STUTTGART      PTCLDY    70  64  83 MISG      30.07F
MONTICELLO     CLEAR     75  66  73 VRB3      30.05S

$$





USA.gov is the U.S. government's official web portal to all federal, state and local government web resources and services.